Location: *
(46.1333°S, 161.2167°W)
Time: 04:27:25
(UTC+00:00)

NOSS 3-1 (C) - Pass Details

Date: 15 July 2020
Orbit: 752 x 1456 km, 63.4° (Epoch: 15 June)

Event Time Altitude Azimuth Distance (km) Brightness Sun altitude
Exits shadow 15:18:59 52° 30° (NNE) 1,074 3.8 -31.0°
Drops below altitude 10° 15:22:59 10° 34° (NE) 2,400 5.9 -30.3°
Sets 15:25:15 0° 35° (NE) 3,274 6.7 -29.9°
